REV6ND LXGB-EGJJ

Flight info

Callsign REV6ND
Flight time N/A
Altitude 14000
Route XRAY DCT RIPRA DCT XAVIR DCT PIMOS N869 BLN N865 MORAL/N0241F140 N865 DELOG/N0238F110 DCT ERCOZ/N0241F140 G27 LERAK
Aircraft F406/L-DFGIP3RVY/S

Departure

Time 2026-05-06 14:21
Airport Gibraltar Airport (LXGB)

Arrival

Time N/A
Airport Jersey Airport (EGJJ)
Time Latitude Longitude Altitude Speed Heading
2026-05-06 14:21 36.07397 -5.40381 6680 ft 212 kts 181°
2026-05-06 14:21 36.06465 -5.40350 6757 ft 213 kts 181°
2026-05-06 14:21 36.04984 -5.40278 6877 ft 213 kts 180°
2026-05-06 14:21 36.03502 -5.40188 6999 ft 214 kts 179°
2026-05-06 14:22 36.00579 -5.39531 7251 ft 221 kts 148°
2026-05-06 14:22 35.99609 -5.37992 7395 ft 226 kts 112°
2026-05-06 14:22 35.99456 -5.36071 7525 ft 228 kts 84°
2026-05-06 14:23 35.99678 -5.34134 7648 ft 228 kts 80°
2026-05-06 14:23 35.99948 -5.32202 7777 ft 229 kts 79°
2026-05-06 14:23 36.00215 -5.30266 7977 ft 228 kts 80°
2026-05-06 14:23 36.00331 -5.28326 8199 ft 226 kts 90°
2026-05-06 14:24 36.00386 -5.26423 8424 ft 220 kts 81°
2026-05-06 14:24 36.00755 -5.24573 8657 ft 222 kts 72°
2026-05-06 14:24 36.01263 -5.22765 8886 ft 223 kts 69°
2026-05-06 14:24 36.01822 -5.20987 9116 ft 223 kts 66°
2026-05-06 14:25 36.02532 -5.19265 9367 ft 223 kts 61°
2026-05-06 14:25 36.03248 -5.17576 9651 ft 223 kts 62°
2026-05-06 14:25 36.03956 -5.15876 9933 ft 223 kts 62°
2026-05-06 14:25 36.04670 -5.14174 10178 ft 223 kts 62°
2026-05-06 14:26 36.05386 -5.12465 10443 ft 224 kts 62°
2026-05-06 14:26 36.06088 -5.10790 10705 ft 225 kts 62°
2026-05-06 14:26 36.06824 -5.09029 10979 ft 226 kts 62°
2026-05-06 14:26 36.07554 -5.07284 11252 ft 227 kts 62°
2026-05-06 14:27 36.08270 -5.05574 11518 ft 229 kts 62°
2026-05-06 14:27 36.08826 -5.04242 11728 ft 228 kts 62°
2026-05-06 14:27 36.09551 -5.02505 11998 ft 227 kts 63°
2026-05-06 14:27 36.10276 -5.00769 12283 ft 228 kts 63°
2026-05-06 14:28 36.11009 -4.99014 12569 ft 228 kts 63°
2026-05-06 14:28 36.11734 -4.97276 12852 ft 229 kts 63°
2026-05-06 14:28 36.12464 -4.95524 13140 ft 230 kts 63°
2026-05-06 14:28 36.13189 -4.93784 13424 ft 231 kts 63°
2026-05-06 14:29 36.13937 -4.91991 13717 ft 231 kts 62°
2026-05-06 14:29 36.14864 -4.90412 13980 ft 230 kts 46°
2026-05-06 14:29 36.16003 -4.89038 14234 ft 228 kts 39°
2026-05-06 14:29 36.17222 -4.87781 14498 ft 227 kts 37°
2026-05-06 14:30 36.18480 -4.86628 14766 ft 224 kts 30°
2026-05-06 14:30 36.19813 -4.85622 14927 ft 229 kts 28°
2026-05-06 14:30 36.21243 -4.84501 14505 ft 257 kts 30°
2026-05-06 14:30 36.22805 -4.83271 14082 ft 274 kts 30°
2026-05-06 14:31 36.24429 -4.81999 13876 ft 278 kts 30°
2026-05-06 14:31 36.26039 -4.80742 13870 ft 276 kts 30°
2026-05-06 14:31 36.27685 -4.79446 13880 ft 275 kts 30°
2026-05-06 14:31 36.29284 -4.78194 13886 ft 274 kts 30°
2026-05-06 14:32 36.30909 -4.76922 13884 ft 273 kts 30°
2026-05-06 14:32 36.32492 -4.75676 13886 ft 273 kts 30°
2026-05-06 14:32 36.34100 -4.74415 13887 ft 273 kts 30°
2026-05-06 14:32 36.35692 -4.73166 13887 ft 273 kts 30°
2026-05-06 14:33 36.36455 -4.72563 13887 ft 273 kts 31°
2026-05-06 14:33 36.38136 -4.71240 13890 ft 273 kts 30°
2026-05-06 14:33 36.39749 -4.69976 13887 ft 273 kts 30°
2026-05-06 14:33 36.41351 -4.68710 13889 ft 272 kts 30°
2026-05-06 14:34 36.42946 -4.67455 13890 ft 272 kts 30°
2026-05-06 14:34 36.44531 -4.66207 13888 ft 271 kts 30°
2026-05-06 14:34 36.46095 -4.64973 13882 ft 271 kts 30°
2026-05-06 14:34 36.47673 -4.63730 13882 ft 270 kts 30°
2026-05-06 14:35 36.49294 -4.62451 13879 ft 270 kts 30°
2026-05-06 14:35 36.50880 -4.61198 13881 ft 270 kts 30°
2026-05-06 14:35 36.52482 -4.59935 13882 ft 270 kts 31°
2026-05-06 14:35 36.53593 -4.59055 13882 ft 269 kts 31°
2026-05-06 14:36 36.55172 -4.57806 13887 ft 270 kts 30°
2026-05-06 14:36 36.56759 -4.56553 13895 ft 269 kts 30°
2026-05-06 14:36 36.57898 -4.55651 13896 ft 269 kts 31°
2026-05-06 14:36 36.59481 -4.54398 13899 ft 270 kts 31°
2026-05-06 14:37 36.61059 -4.53147 13899 ft 270 kts 31°
2026-05-06 14:37 36.62647 -4.51889 13894 ft 270 kts 31°
2026-05-06 14:37 36.64233 -4.50631 13896 ft 270 kts 31°
2026-05-06 14:37 36.65817 -4.49376 13896 ft 270 kts 31°
2026-05-06 14:38 36.67382 -4.48136 13892 ft 270 kts 31°
2026-05-06 14:38 36.68983 -4.46863 13893 ft 269 kts 31°
2026-05-06 14:38 36.69896 -4.46137 13893 ft 269 kts 31°
2026-05-06 14:38 36.71484 -4.44875 13894 ft 269 kts 31°
2026-05-06 14:39 36.73050 -4.43631 13896 ft 268 kts 31°
2026-05-06 14:39 36.74634 -4.42372 13895 ft 268 kts 31°
2026-05-06 14:39 36.76188 -4.41134 13900 ft 268 kts 31°
2026-05-06 14:39 36.77783 -4.39865 13896 ft 269 kts 31°
2026-05-06 14:40 36.78915 -4.38968 13893 ft 269 kts 30°
2026-05-06 14:40 36.80526 -4.37782 13896 ft 269 kts 28°
2026-05-06 14:40 36.82155 -4.36633 13888 ft 268 kts 28°
2026-05-06 14:40 36.83833 -4.35636 13893 ft 267 kts 20°
2026-05-06 14:41 36.85527 -4.34723 13886 ft 267 kts 22°
2026-05-06 14:41 36.86663 -4.34099 13892 ft 266 kts 21°
2026-05-06 14:41 36.88936 -4.32858 13893 ft 267 kts 21°
2026-05-06 14:41 36.90010 -4.32270 13895 ft 267 kts 21°
2026-05-06 14:42 36.92309 -4.31011 13894 ft 267 kts 21°
2026-05-06 14:42 36.94017 -4.30077 13885 ft 268 kts 22°
2026-05-06 14:42 36.95171 -4.29445 13886 ft 268 kts 22°
2026-05-06 14:42 36.96870 -4.28511 13887 ft 268 kts 21°
2026-05-06 14:43 36.98575 -4.27577 13890 ft 268 kts 22°
2026-05-06 14:43 37.00260 -4.26656 13888 ft 268 kts 21°
2026-05-06 14:43 37.01963 -4.25715 13880 ft 268 kts 21°
2026-05-06 14:43 37.03654 -4.24789 13885 ft 268 kts 21°
2026-05-06 14:44 37.05380 -4.23845 13895 ft 268 kts 21°
2026-05-06 14:44 37.07015 -4.22941 13891 ft 269 kts 21°
2026-05-06 14:44 37.08803 -4.21961 13890 ft 269 kts 21°
2026-05-06 14:45 37.12186 -4.20096 13890 ft 269 kts 21°
2026-05-06 14:45 37.13952 -4.19127 13889 ft 270 kts 22°
2026-05-06 14:45 37.15621 -4.18206 13883 ft 270 kts 22°
2026-05-06 14:45 37.17332 -4.17260 13887 ft 269 kts 22°
2026-05-06 14:46 37.19099 -4.16287 13894 ft 269 kts 22°
2026-05-06 14:46 37.20783 -4.15357 13892 ft 269 kts 22°
2026-05-06 14:46 37.22506 -4.14404 13889 ft 269 kts 22°
2026-05-06 14:46 37.24216 -4.13463 13885 ft 269 kts 22°
2026-05-06 14:47 37.25751 -4.12612 13883 ft 268 kts 22°
2026-05-06 14:47 37.26716 -4.12078 13879 ft 268 kts 22°
2026-05-06 14:47 37.28382 -4.11158 13876 ft 268 kts 22°
2026-05-06 14:47 37.30123 -4.10195 13878 ft 267 kts 22°
2026-05-06 14:48 37.31777 -4.09276 13883 ft 268 kts 21°
2026-05-06 14:48 37.33561 -4.08290 13884 ft 268 kts 22°
2026-05-06 14:48 37.35243 -4.07359 13885 ft 268 kts 22°
2026-05-06 14:48 37.36942 -4.06414 13882 ft 268 kts 22°
2026-05-06 14:49 37.38050 -4.05799 13883 ft 269 kts 22°
2026-05-06 14:49 37.39286 -4.05117 13880 ft 269 kts 22°
2026-05-06 14:49 37.40994 -4.04166 13881 ft 269 kts 22°
2026-05-06 14:49 37.42712 -4.03212 13881 ft 269 kts 22°
2026-05-06 14:50 37.44416 -4.02266 13877 ft 269 kts 22°
2026-05-06 14:50 37.46123 -4.01316 13878 ft 268 kts 22°
2026-05-06 14:50 37.47845 -4.00358 13877 ft 268 kts 22°
2026-05-06 14:50 37.49345 -3.99524 13877 ft 268 kts 22°
2026-05-06 14:51 37.50770 -3.98731 13880 ft 269 kts 22°
2026-05-06 14:51 37.52416 -3.97813 13876 ft 268 kts 22°
2026-05-06 14:51 37.54181 -3.96831 13878 ft 268 kts 22°
2026-05-06 14:51 37.55870 -3.95888 13878 ft 269 kts 22°
2026-05-06 14:52 37.57598 -3.94924 13877 ft 269 kts 22°
2026-05-06 14:52 37.59280 -3.93986 13876 ft 269 kts 22°
2026-05-06 14:52 37.60997 -3.93026 13876 ft 268 kts 22°
2026-05-06 14:52 37.62718 -3.92065 13879 ft 268 kts 22°
2026-05-06 14:53 37.64417 -3.91116 13878 ft 269 kts 22°
2026-05-06 14:53 37.66135 -3.90153 13878 ft 269 kts 22°
2026-05-06 14:53 37.67847 -3.89196 13878 ft 269 kts 22°
2026-05-06 14:53 37.69560 -3.88238 13872 ft 269 kts 22°
2026-05-06 14:54 37.71253 -3.87288 13871 ft 269 kts 22°
2026-05-06 14:54 37.72985 -3.86319 13878 ft 270 kts 22°
2026-05-06 14:54 37.74706 -3.85353 13875 ft 270 kts 22°
2026-05-06 14:54 37.76393 -3.84405 13872 ft 270 kts 22°
2026-05-06 14:55 37.78132 -3.83432 13873 ft 270 kts 22°
2026-05-06 14:55 37.79822 -3.82481 13875 ft 269 kts 22°
2026-05-06 14:55 37.81481 -3.81548 13874 ft 269 kts 22°
2026-05-06 14:55 37.83270 -3.80544 13870 ft 269 kts 22°
2026-05-06 14:56 37.84456 -3.79878 13873 ft 269 kts 22°
2026-05-06 14:56 37.86186 -3.78903 13873 ft 269 kts 22°
2026-05-06 14:56 37.87904 -3.77936 13872 ft 269 kts 22°
2026-05-06 14:56 37.89587 -3.76988 13878 ft 269 kts 22°
2026-05-06 14:57 37.91300 -3.76024 13877 ft 270 kts 22°
2026-05-06 14:57 37.93049 -3.75037 13873 ft 270 kts 22°
2026-05-06 14:57 37.94739 -3.74083 13866 ft 270 kts 22°
2026-05-06 14:57 37.96479 -3.73101 13865 ft 270 kts 22°
2026-05-06 14:58 37.98197 -3.72131 13865 ft 270 kts 22°
2026-05-06 14:58 37.99913 -3.71162 13865 ft 270 kts 22°
2026-05-06 14:58 38.01633 -3.70189 13864 ft 270 kts 22°
2026-05-06 14:58 38.03344 -3.69223 13864 ft 270 kts 22°
2026-05-06 14:59 38.05015 -3.68276 13867 ft 270 kts 22°
2026-05-06 14:59 38.06778 -3.67280 13866 ft 270 kts 22°
2026-05-06 14:59 38.08496 -3.66306 13865 ft 270 kts 22°
2026-05-06 14:59 38.10194 -3.65344 13866 ft 270 kts 22°
2026-05-06 15:00 38.11928 -3.64361 13867 ft 270 kts 21°
2026-05-06 15:00 38.13687 -3.63543 13877 ft 269 kts 13°
2026-05-06 15:00 38.15520 -3.62974 13848 ft 268 kts
2026-05-06 15:00 38.17276 -3.62537 13841 ft 269 kts
2026-05-06 15:01 38.18560 -3.62242 13869 ft 269 kts
2026-05-06 15:01 38.20418 -3.61960 13870 ft 269 kts 360°
2026-05-06 15:01 38.22283 -3.61799 13857 ft 270 kts
2026-05-06 15:01 38.23521 -3.61675 13871 ft 270 kts
2026-05-06 15:02 38.25488 -3.61487 13871 ft 271 kts
2026-05-06 15:02 38.27341 -3.61307 13871 ft 271 kts
2026-05-06 15:02 38.29249 -3.61123 13873 ft 272 kts
2026-05-06 15:02 38.31135 -3.60940 13874 ft 272 kts
2026-05-06 15:03 38.33026 -3.60757 13864 ft 273 kts
2026-05-06 15:03 38.34891 -3.60577 13868 ft 273 kts
2026-05-06 15:03 38.36812 -3.60391 13873 ft 273 kts
2026-05-06 15:03 38.38708 -3.60207 13874 ft 273 kts
2026-05-06 15:04 38.40574 -3.60028 13872 ft 273 kts
2026-05-06 15:04 38.42463 -3.59842 13874 ft 273 kts
2026-05-06 15:04 38.44387 -3.59657 13868 ft 273 kts
2026-05-06 15:04 38.46277 -3.59473 13867 ft 272 kts
2026-05-06 15:05 38.48141 -3.59292 13860 ft 272 kts
2026-05-06 15:05 38.50031 -3.59109 13861 ft 272 kts
2026-05-06 15:05 38.51919 -3.58925 13871 ft 272 kts
2026-05-06 15:05 38.53802 -3.58741 13873 ft 271 kts
2026-05-06 15:06 38.55685 -3.58558 13873 ft 272 kts
2026-05-06 15:06 38.57569 -3.58375 13870 ft 272 kts
2026-05-06 15:06 38.59461 -3.58190 13868 ft 272 kts
2026-05-06 15:06 38.61339 -3.58006 13876 ft 272 kts
2026-05-06 15:07 38.63235 -3.57822 13868 ft 272 kts
2026-05-06 15:07 38.65126 -3.57638 13872 ft 272 kts
2026-05-06 15:07 38.67012 -3.57453 13874 ft 272 kts
2026-05-06 15:07 38.68901 -3.57268 13872 ft 272 kts
2026-05-06 15:08 38.70792 -3.57084 13877 ft 272 kts
2026-05-06 15:08 38.72676 -3.56900 13879 ft 272 kts
2026-05-06 15:08 38.74565 -3.56715 13877 ft 272 kts
2026-05-06 15:08 38.75852 -3.56589 13878 ft 272 kts
2026-05-06 15:09 38.77082 -3.56468 13870 ft 272 kts
2026-05-06 15:09 38.78972 -3.56283 13877 ft 272 kts
2026-05-06 15:09 38.80859 -3.56098 13877 ft 272 kts
2026-05-06 15:09 38.82751 -3.55913 13880 ft 272 kts
2026-05-06 15:10 38.84638 -3.55728 13887 ft 273 kts
2026-05-06 15:10 38.86530 -3.55542 13883 ft 273 kts
2026-05-06 15:10 38.88428 -3.55355 13876 ft 273 kts
2026-05-06 15:10 38.90322 -3.55170 13883 ft 273 kts
2026-05-06 15:11 38.92217 -3.54984 13883 ft 273 kts
2026-05-06 15:11 38.94086 -3.54799 13881 ft 273 kts
2026-05-06 15:11 38.95982 -3.54613 13880 ft 273 kts
2026-05-06 15:11 38.97880 -3.54429 13880 ft 273 kts
2026-05-06 15:12 38.99796 -3.54237 13880 ft 273 kts
2026-05-06 15:12 39.01666 -3.54052 13881 ft 273 kts
2026-05-06 15:12 39.03559 -3.53864 13880 ft 273 kts
2026-05-06 15:12 39.04652 -3.53754 13881 ft 273 kts
2026-05-06 15:13 39.05926 -3.53628 13881 ft 273 kts
2026-05-06 15:13 39.07652 -3.53458 13886 ft 273 kts
2026-05-06 15:13 39.09542 -3.53269 13881 ft 273 kts
2026-05-06 15:13 39.11432 -3.53081 13883 ft 273 kts
2026-05-06 15:14 39.13332 -3.52893 13880 ft 273 kts
2026-05-06 15:14 39.15221 -3.52704 13881 ft 273 kts
2026-05-06 15:14 39.17112 -3.52516 13883 ft 273 kts
2026-05-06 15:14 39.19006 -3.52327 13883 ft 273 kts
2026-05-06 15:15 39.20902 -3.52136 13880 ft 273 kts
2026-05-06 15:15 39.22790 -3.51949 13875 ft 273 kts
2026-05-06 15:15 39.24683 -3.51760 13882 ft 273 kts
2026-05-06 15:15 39.26573 -3.51571 13885 ft 272 kts
2026-05-06 15:16 39.28461 -3.51383 13876 ft 272 kts
2026-05-06 15:16 39.30355 -3.51194 13893 ft 273 kts
2026-05-06 15:16 39.32228 -3.51005 13889 ft 273 kts
2026-05-06 15:16 39.34147 -3.50813 13884 ft 273 kts
2026-05-06 15:17 39.36042 -3.50623 13891 ft 273 kts
2026-05-06 15:17 39.37938 -3.50434 13891 ft 274 kts
2026-05-06 15:17 39.39837 -3.50244 13885 ft 274 kts
2026-05-06 15:17 39.41738 -3.50052 13891 ft 274 kts
2026-05-06 15:18 39.43632 -3.49863 13890 ft 273 kts
2026-05-06 15:18 39.45529 -3.49671 13886 ft 273 kts
2026-05-06 15:18 39.47427 -3.49480 13889 ft 273 kts
2026-05-06 15:18 39.49322 -3.49290 13888 ft 273 kts
2026-05-06 15:19 39.51220 -3.49099 13885 ft 273 kts
2026-05-06 15:19 39.53117 -3.48908 13901 ft 273 kts
2026-05-06 15:19 39.55015 -3.48714 13899 ft 274 kts
2026-05-06 15:19 39.56915 -3.48524 13896 ft 274 kts
2026-05-06 15:20 39.58816 -3.48336 13893 ft 274 kts
2026-05-06 15:20 39.60712 -3.48145 13895 ft 274 kts
2026-05-06 15:20 39.62583 -3.47958 13896 ft 274 kts
2026-05-06 15:20 39.64484 -3.47768 13896 ft 274 kts
2026-05-06 15:21 39.66382 -3.47577 13894 ft 274 kts
2026-05-06 15:21 39.68282 -3.47387 13895 ft 274 kts
2026-05-06 15:21 39.70180 -3.47197 13896 ft 274 kts
2026-05-06 15:21 39.72081 -3.47006 13899 ft 273 kts
2026-05-06 15:22 39.73979 -3.46815 13901 ft 273 kts
2026-05-06 15:22 39.75259 -3.46698 13902 ft 273 kts
2026-05-06 15:22 39.77125 -3.46607 13904 ft 273 kts 360°
2026-05-06 15:22 39.79020 -3.46551 13903 ft 272 kts 359°
2026-05-06 15:23 39.80903 -3.46680 13903 ft 271 kts 352°
2026-05-06 15:23 39.82783 -3.46879 13903 ft 271 kts 354°
2026-05-06 15:23 39.84662 -3.47064 13902 ft 271 kts 353°
2026-05-06 15:23 39.86536 -3.47254 13900 ft 270 kts 354°
2026-05-06 15:24 39.88411 -3.47443 13897 ft 270 kts 354°
2026-05-06 15:24 39.90289 -3.47633 13903 ft 270 kts 353°
2026-05-06 15:24 39.91526 -3.47758 13904 ft 270 kts 353°
2026-05-06 15:24 39.93459 -3.47953 13903 ft 270 kts 353°
2026-05-06 15:25 39.94532 -3.48060 13901 ft 270 kts 353°
2026-05-06 15:25 39.96399 -3.48249 13901 ft 270 kts 353°
2026-05-06 15:25 39.98274 -3.48439 13906 ft 270 kts 354°
2026-05-06 15:25 40.00130 -3.48628 13908 ft 270 kts 355°
2026-05-06 15:26 40.02006 -3.48816 13903 ft 270 kts 354°
2026-05-06 15:26 40.03882 -3.49007 13904 ft 271 kts 354°
2026-05-06 15:26 40.05148 -3.49135 13904 ft 271 kts 354°
2026-05-06 15:26 40.07030 -3.49326 13908 ft 271 kts 354°
2026-05-06 15:27 40.08916 -3.49516 13915 ft 271 kts 354°
2026-05-06 15:27 40.09552 -3.49582 13914 ft 272 kts 354°
2026-05-06 15:27 40.11499 -3.49779 13915 ft 272 kts 354°
2026-05-06 15:27 40.13382 -3.49970 13915 ft 271 kts 354°
2026-05-06 15:28 40.15262 -3.50161 13915 ft 271 kts 354°
2026-05-06 15:28 40.17146 -3.50353 13917 ft 272 kts 354°
2026-05-06 15:28 40.19033 -3.50544 13918 ft 272 kts 354°
2026-05-06 15:28 40.20109 -3.50654 13924 ft 272 kts 355°
2026-05-06 15:29 40.21459 -3.50794 13921 ft 272 kts 355°
2026-05-06 15:29 40.22571 -3.50904 13920 ft 272 kts 355°
2026-05-06 15:29 40.23765 -3.51025 13920 ft 272 kts 355°
2026-05-06 15:29 40.24089 -3.51058 13916 ft 272 kts 355°
2026-05-06 15:30 40.25111 -3.51163 13919 ft 272 kts 355°
2026-05-06 15:30 40.25834 -3.51237 13921 ft 273 kts 355°
2026-05-06 15:30 40.26900 -3.51345 13921 ft 273 kts 355°
2026-05-06 15:30 40.27695 -3.51426 13920 ft 273 kts 355°
2026-05-06 15:31 40.28400 -3.51499 13920 ft 273 kts 355°
2026-05-06 15:31 40.30143 -3.51676 13919 ft 273 kts 355°
2026-05-06 15:31 40.31032 -3.51768 13918 ft 273 kts 355°
2026-05-06 15:32 40.33092 -3.51977 13920 ft 273 kts 355°
2026-05-06 15:32 40.34359 -3.52107 13920 ft 273 kts 355°
2026-05-06 15:32 40.35964 -3.52271 13924 ft 273 kts 355°
2026-05-06 15:32 40.37024 -3.52380 13924 ft 273 kts 355°
2026-05-06 15:33 40.37472 -3.52425 13924 ft 273 kts 355°
2026-05-06 15:33 40.38742 -3.52556 13923 ft 273 kts 355°
2026-05-06 15:33 40.39598 -3.52643 13923 ft 273 kts 355°
2026-05-06 15:33 40.40112 -3.52695 13923 ft 273 kts 355°
2026-05-06 15:34 40.41485 -3.52836 13923 ft 273 kts 355°
2026-05-06 15:34 40.42131 -3.52902 13922 ft 273 kts 355°
2026-05-06 15:34 40.43477 -3.53042 13923 ft 273 kts 355°
2026-05-06 15:34 40.44839 -3.53179 13922 ft 273 kts 355°
2026-05-06 15:35 40.46732 -3.53373 13923 ft 273 kts 355°
2026-05-06 15:35 40.47620 -3.53465 13924 ft 273 kts 355°
2026-05-06 15:35 40.49224 -3.53630 13924 ft 274 kts 355°
2026-05-06 15:35 40.50721 -3.53783 13924 ft 274 kts 355°
2026-05-06 15:36 40.52353 -3.53950 13924 ft 274 kts 355°
2026-05-06 15:36 40.52973 -3.54014 13923 ft 274 kts 355°
2026-05-06 15:36 40.54260 -3.54147 13923 ft 274 kts 355°
2026-05-06 15:36 40.55782 -3.54304 13923 ft 274 kts 355°
2026-05-06 15:37 40.57656 -3.54496 13923 ft 274 kts 355°
2026-05-06 15:37 40.59580 -3.54694 13921 ft 274 kts 355°
2026-05-06 15:37 40.61453 -3.54887 13921 ft 274 kts 355°
2026-05-06 15:37 40.63349 -3.55083 13920 ft 274 kts 355°
2026-05-06 15:38 40.65227 -3.55277 13920 ft 274 kts 355°
2026-05-06 15:38 40.67143 -3.55474 13919 ft 273 kts 355°
2026-05-06 15:38 40.67830 -3.55544 13919 ft 273 kts 355°
2026-05-06 15:38 40.69000 -3.55666 13921 ft 274 kts 355°
2026-05-06 15:39 40.69524 -3.55720 13920 ft 274 kts 355°
2026-05-06 15:39 40.70839 -3.55856 13920 ft 274 kts 355°
2026-05-06 15:39 40.72071 -3.55982 13920 ft 274 kts 355°
2026-05-06 15:39 40.73972 -3.56179 13918 ft 274 kts 355°
2026-05-06 15:40 40.75228 -3.56310 13918 ft 274 kts 355°
2026-05-06 15:40 40.76941 -3.56487 13918 ft 274 kts 355°
2026-05-06 15:40 40.78817 -3.56681 13915 ft 274 kts 355°
2026-05-06 15:40 40.80743 -3.56881 13915 ft 274 kts 355°
2026-05-06 15:41 40.82635 -3.57076 13915 ft 274 kts 355°
2026-05-06 15:41 40.84534 -3.57273 13916 ft 274 kts 355°
2026-05-06 15:41 40.86431 -3.57469 13920 ft 274 kts 355°
2026-05-06 15:41 40.88333 -3.57668 13919 ft 274 kts 355°
2026-05-06 15:42 40.89634 -3.57804 13922 ft 274 kts 355°
2026-05-06 15:42 40.91536 -3.58000 13921 ft 274 kts 355°
2026-05-06 15:42 40.93439 -3.58199 13921 ft 274 kts 355°
2026-05-06 15:42 40.95341 -3.58396 13922 ft 274 kts 355°
2026-05-06 15:43 40.97243 -3.58594 13920 ft 274 kts 355°
2026-05-06 15:43 40.99145 -3.58793 13923 ft 274 kts 355°
2026-05-06 15:43 41.01045 -3.58991 13922 ft 274 kts 355°
2026-05-06 15:43 41.02950 -3.59188 13921 ft 274 kts 355°
2026-05-06 15:44 41.04849 -3.59387 13925 ft 274 kts 355°
2026-05-06 15:44 41.06754 -3.59587 13924 ft 274 kts 355°
2026-05-06 15:44 41.08656 -3.59781 13933 ft 274 kts 355°
2026-05-06 15:44 41.10539 -3.59982 13931 ft 274 kts 354°
2026-05-06 15:45 41.12454 -3.60189 13934 ft 274 kts 354°
2026-05-06 15:45 41.14356 -3.60434 13930 ft 274 kts 354°
2026-05-06 15:45 41.16265 -3.60492 13928 ft 274 kts 358°
2026-05-06 15:45 41.16988 -3.60505 13929 ft 274 kts 358°
2026-05-06 15:46 41.18891 -3.60563 13928 ft 274 kts 358°
2026-05-06 15:46 41.20794 -3.60611 13933 ft 274 kts 358°
2026-05-06 15:46 41.22252 -3.60648 13933 ft 274 kts 358°
2026-05-06 15:46 41.23434 -3.60675 13932 ft 274 kts 358°
2026-05-06 15:47 41.25331 -3.60724 13931 ft 274 kts 358°
2026-05-06 15:47 41.27232 -3.60774 13931 ft 274 kts 357°
2026-05-06 15:47 41.29138 -3.60822 13933 ft 274 kts 358°
2026-05-06 15:47 41.31029 -3.60864 13937 ft 273 kts 357°
2026-05-06 15:48 41.32935 -3.60917 13938 ft 273 kts 358°
2026-05-06 15:48 41.34839 -3.60967 13934 ft 273 kts 358°
2026-05-06 15:48 41.36736 -3.61013 13933 ft 272 kts 357°
2026-05-06 15:48 41.38629 -3.61062 13932 ft 272 kts 358°
2026-05-06 15:49 41.40521 -3.61111 13933 ft 272 kts 357°
2026-05-06 15:49 41.42415 -3.61160 13934 ft 272 kts 358°
2026-05-06 15:49 41.44278 -3.61202 13935 ft 272 kts 358°
2026-05-06 15:49 41.46168 -3.61254 13933 ft 272 kts 357°
2026-05-06 15:50 41.48054 -3.61337 13933 ft 271 kts 356°
2026-05-06 15:50 41.49939 -3.61369 13933 ft 271 kts 359°
2026-05-06 15:50 41.51826 -3.61358 13935 ft 271 kts 358°
2026-05-06 15:50 41.53712 -3.61365 13937 ft 271 kts 358°
2026-05-06 15:51 41.55599 -3.61363 13933 ft 271 kts 358°
2026-05-06 15:51 41.57492 -3.61362 13932 ft 272 kts 358°
2026-05-06 15:51 41.59324 -3.61362 13932 ft 272 kts 358°
2026-05-06 15:51 41.61218 -3.61363 13932 ft 272 kts 358°
2026-05-06 15:52 41.62660 -3.61361 13935 ft 272 kts 358°
2026-05-06 15:52 41.63228 -3.61362 13934 ft 272 kts 358°
2026-05-06 15:52 41.65041 -3.61361 13934 ft 272 kts 358°
2026-05-06 15:52 41.66852 -3.61361 13934 ft 272 kts 358°
2026-05-06 15:53 41.68741 -3.61361 13934 ft 272 kts 358°
2026-05-06 15:53 41.70632 -3.61360 13934 ft 272 kts 358°
2026-05-06 15:53 41.72524 -3.61360 13936 ft 272 kts 358°
2026-05-06 15:53 41.74417 -3.61360 13937 ft 272 kts 358°
2026-05-06 15:54 41.76308 -3.61361 13936 ft 272 kts 358°
2026-05-06 15:54 41.78201 -3.61360 13934 ft 272 kts 358°
2026-05-06 15:54 41.80091 -3.61361 13935 ft 272 kts 358°
2026-05-06 15:54 41.81984 -3.61360 13934 ft 272 kts 358°
2026-05-06 15:55 41.83880 -3.61360 13936 ft 272 kts 358°
2026-05-06 15:55 41.85772 -3.61360 13937 ft 272 kts 358°
2026-05-06 15:55 41.87665 -3.61359 13935 ft 272 kts 358°
2026-05-06 15:55 41.89557 -3.61359 13941 ft 272 kts 358°
2026-05-06 15:56 41.91449 -3.61359 13935 ft 272 kts 358°
2026-05-06 15:56 41.93344 -3.61358 13946 ft 272 kts 358°
2026-05-06 15:56 41.95232 -3.61359 13941 ft 272 kts 358°
2026-05-06 15:56 41.97132 -3.61359 13939 ft 272 kts 358°
2026-05-06 15:57 41.98156 -3.61359 13941 ft 272 kts 358°
2026-05-06 15:57 41.99389 -3.61350 13941 ft 272 kts 359°
2026-05-06 15:57 42.01286 -3.61296 13941 ft 272 kts 358°
2026-05-06 15:57 42.03172 -3.61428 13941 ft 271 kts 354°
2026-05-06 15:58 42.04417 -3.61505 13939 ft 271 kts 355°
2026-05-06 15:58 42.06341 -3.61624 13942 ft 271 kts 355°
2026-05-06 15:58 42.08201 -3.61745 13942 ft 271 kts 355°
2026-05-06 15:58 42.10108 -3.61868 13941 ft 271 kts 355°
2026-05-06 15:59 42.11998 -3.61989 13941 ft 271 kts 355°
2026-05-06 15:59 42.13853 -3.62109 13942 ft 271 kts 355°
2026-05-06 15:59 42.15742 -3.62230 13952 ft 271 kts 355°
2026-05-06 15:59 42.16697 -3.62293 13951 ft 272 kts 355°
2026-05-06 16:00 42.17371 -3.62336 13949 ft 272 kts 355°
2026-05-06 16:00 42.18597 -3.62415 13949 ft 272 kts 355°
2026-05-06 16:00 42.20438 -3.62533 13950 ft 272 kts 355°
2026-05-06 16:00 42.21702 -3.62616 13951 ft 272 kts 355°
2026-05-06 16:01 42.22978 -3.62698 13954 ft 272 kts 355°
2026-05-06 16:01 42.24329 -3.62785 13952 ft 272 kts 355°
2026-05-06 16:01 42.25009 -3.62829 13954 ft 272 kts 355°
2026-05-06 16:01 42.26302 -3.62912 13953 ft 272 kts 355°
2026-05-06 16:02 42.26979 -3.62956 13952 ft 272 kts 355°
2026-05-06 16:02 42.28275 -3.63040 13950 ft 272 kts 355°
2026-05-06 16:02 42.28501 -3.63055 13950 ft 272 kts 355°
2026-05-06 16:02 42.29489 -3.63119 13951 ft 272 kts 355°
2026-05-06 16:03 42.30154 -3.63162 13951 ft 272 kts 355°
2026-05-06 16:03 42.31433 -3.63244 13949 ft 272 kts 355°
2026-05-06 16:03 42.32035 -3.63284 13952 ft 272 kts 355°
2026-05-06 16:03 42.32662 -3.63324 13950 ft 272 kts 355°
2026-05-06 16:04 42.33183 -3.63358 13950 ft 272 kts 355°
2026-05-06 16:04 42.33885 -3.63404 13951 ft 272 kts 355°
2026-05-06 16:04 42.35223 -3.63495 13953 ft 272 kts 355°
2026-05-06 16:04 42.37161 -3.63785 13951 ft 271 kts 349°
2026-05-06 16:05 42.38362 -3.64042 13950 ft 271 kts 350°
2026-05-06 16:05 42.40222 -3.64401 13949 ft 271 kts 350°
2026-05-06 16:05 42.41457 -3.64645 13949 ft 270 kts 349°
2026-05-06 16:05 42.43377 -3.65032 13950 ft 270 kts 350°
2026-05-06 16:06 42.44609 -3.65275 13953 ft 270 kts 350°
2026-05-06 16:06 42.44972 -3.65347 13954 ft 270 kts 350°
2026-05-06 16:06 42.46689 -3.65685 13955 ft 271 kts 349°
2026-05-06 16:06 42.48526 -3.66052 13957 ft 271 kts 350°
2026-05-06 16:07 42.50212 -3.66389 13955 ft 271 kts 350°
2026-05-06 16:07 42.52278 -3.66802 13960 ft 271 kts 350°
2026-05-06 16:07 42.54152 -3.67167 13966 ft 271 kts 350°
2026-05-06 16:07 42.56007 -3.67542 13969 ft 272 kts 350°
2026-05-06 16:08 42.57882 -3.67918 13963 ft 272 kts 350°
2026-05-06 16:08 42.59751 -3.68288 13962 ft 272 kts 351°
2026-05-06 16:08 42.61627 -3.68663 13968 ft 271 kts 350°
2026-05-06 16:08 42.63493 -3.69033 13971 ft 271 kts 350°
2026-05-06 16:09 42.65360 -3.69424 13977 ft 271 kts 349°
2026-05-06 16:09 42.67211 -3.69832 13979 ft 271 kts 352°
2026-05-06 16:09 42.69086 -3.70125 13980 ft 271 kts 351°
2026-05-06 16:09 42.70956 -3.70450 13984 ft 271 kts 351°
2026-05-06 16:10 42.72838 -3.70771 13994 ft 272 kts 352°
2026-05-06 16:10 42.74702 -3.71088 13988 ft 271 kts 352°
2026-05-06 16:10 42.76589 -3.71406 13989 ft 271 kts 351°
2026-05-06 16:10 42.78461 -3.71727 13989 ft 271 kts 351°
2026-05-06 16:11 42.80329 -3.72046 14002 ft 271 kts 352°
2026-05-06 16:11 42.82174 -3.72360 14001 ft 271 kts 351°
2026-05-06 16:11 42.84045 -3.72680 14003 ft 271 kts 352°
2026-05-06 16:11 42.85906 -3.72997 13999 ft 271 kts 351°
2026-05-06 16:12 42.87792 -3.73321 14000 ft 271 kts 352°
2026-05-06 16:12 42.89661 -3.73639 13997 ft 271 kts 351°
2026-05-06 16:12 42.91528 -3.73959 14002 ft 271 kts 351°
2026-05-06 16:12 42.93376 -3.74275 14001 ft 271 kts 351°
2026-05-06 16:13 42.95240 -3.74596 14000 ft 271 kts 352°
2026-05-06 16:13 42.97112 -3.74911 14001 ft 271 kts 351°
2026-05-06 16:13 42.98929 -3.75230 14000 ft 271 kts 350°
2026-05-06 16:13 43.00726 -3.75539 14003 ft 272 kts 351°
2026-05-06 16:14 43.02732 -3.75883 14004 ft 272 kts 351°
2026-05-06 16:14 43.04584 -3.76199 14013 ft 273 kts 351°
2026-05-06 16:14 43.06494 -3.76529 14008 ft 273 kts 350°
2026-05-06 16:14 43.08376 -3.76857 14008 ft 273 kts 351°
2026-05-06 16:15 43.10272 -3.77181 14008 ft 273 kts 351°
2026-05-06 16:15 43.12154 -3.77500 14009 ft 274 kts 351°
2026-05-06 16:15 43.14044 -3.77831 14010 ft 274 kts 350°
2026-05-06 16:15 43.15935 -3.78159 14006 ft 273 kts 351°
2026-05-06 16:16 43.17131 -3.78364 14012 ft 274 kts 351°
2026-05-06 16:16 43.19711 -3.78805 14007 ft 273 kts 350°
2026-05-06 16:16 43.21594 -3.79135 14007 ft 273 kts 350°
2026-05-06 16:16 43.23483 -3.79462 14010 ft 273 kts 350°
2026-05-06 16:17 43.25366 -3.79789 14010 ft 273 kts 351°
2026-05-06 16:17 43.26620 -3.80003 14008 ft 273 kts 351°
2026-05-06 16:17 43.28602 -3.80347 14008 ft 274 kts 350°
2026-05-06 16:17 43.30470 -3.80675 14008 ft 274 kts 350°
2026-05-06 16:18 43.32366 -3.81002 14011 ft 274 kts 350°
2026-05-06 16:18 43.33624 -3.81218 14022 ft 275 kts 350°
2026-05-06 16:18 43.34898 -3.81443 14028 ft 277 kts 350°
2026-05-06 16:18 43.37301 -3.81858 14013 ft 278 kts 350°
2026-05-06 16:19 43.39294 -3.82206 14004 ft 277 kts 351°
2026-05-06 16:19 43.40637 -3.82439 13994 ft 276 kts 351°
2026-05-06 16:19 43.42537 -3.82770 13997 ft 276 kts 351°
2026-05-06 16:19 43.44437 -3.83101 13997 ft 275 kts 351°
2026-05-06 16:20 43.46319 -3.83430 13998 ft 274 kts 351°
2026-05-06 16:20 43.48231 -3.83763 14002 ft 274 kts 351°
2026-05-06 16:20 43.50097 -3.84088 14004 ft 274 kts 351°
2026-05-06 16:20 43.51346 -3.84306 14004 ft 274 kts 351°
2026-05-06 16:21 43.53257 -3.84640 14014 ft 275 kts 351°
2026-05-06 16:21 43.55145 -3.84971 14018 ft 276 kts 351°
2026-05-06 16:21 43.57034 -3.85299 14010 ft 276 kts 351°
2026-05-06 16:21 43.58980 -3.85643 14025 ft 277 kts 350°
2026-05-06 16:22 43.60900 -3.85977 14009 ft 278 kts 351°
2026-05-06 16:22 43.62761 -3.86304 13995 ft 278 kts 350°
2026-05-06 16:22 43.64696 -3.86644 13991 ft 276 kts 350°
2026-05-06 16:22 43.66622 -3.86982 13993 ft 275 kts 350°
2026-05-06 16:23 43.68499 -3.87311 13995 ft 274 kts 350°
2026-05-06 16:23 43.70329 -3.87633 13997 ft 274 kts 350°
2026-05-06 16:23 43.72196 -3.87962 14000 ft 273 kts 350°
2026-05-06 16:23 43.74050 -3.88289 14003 ft 274 kts 351°
2026-05-06 16:24 43.75947 -3.88623 13997 ft 274 kts 351°
2026-05-06 16:24 43.77826 -3.88955 13997 ft 273 kts 351°
2026-05-06 16:24 43.79410 -3.89232 13996 ft 272 kts 351°
2026-05-06 16:24 43.80604 -3.89442 13997 ft 272 kts 351°
2026-05-06 16:25 43.82473 -3.89773 13997 ft 271 kts 351°
2026-05-06 16:25 43.84344 -3.90103 13997 ft 271 kts 351°
2026-05-06 16:25 43.86184 -3.90429 13989 ft 270 kts 351°
2026-05-06 16:25 43.88087 -3.90765 13993 ft 270 kts 351°
2026-05-06 16:26 43.89948 -3.91095 13988 ft 270 kts 351°
2026-05-06 16:26 43.91806 -3.91423 13992 ft 270 kts 351°
2026-05-06 16:26 43.93680 -3.91755 13989 ft 270 kts 351°
2026-05-06 16:26 43.95529 -3.92083 13989 ft 270 kts 351°
2026-05-06 16:27 43.97392 -3.92414 13993 ft 270 kts 351°
2026-05-06 16:27 43.99259 -3.92744 13991 ft 270 kts 351°
2026-05-06 16:27 44.01072 -3.93067 13988 ft 269 kts 351°
2026-05-06 16:27 44.02974 -3.93406 13990 ft 269 kts 351°
2026-05-06 16:28 44.04831 -3.93735 13989 ft 269 kts 351°
2026-05-06 16:28 44.06693 -3.94065 13990 ft 269 kts 351°
2026-05-06 16:28 44.08558 -3.94398 13989 ft 269 kts 351°
2026-05-06 16:28 44.10409 -3.94728 13986 ft 269 kts 351°
2026-05-06 16:29 44.11565 -3.94934 13989 ft 269 kts 351°
2026-05-06 16:29 44.12538 -3.95108 13990 ft 269 kts 351°
2026-05-06 16:29 44.14399 -3.95439 13990 ft 269 kts 351°
2026-05-06 16:29 44.16234 -3.95766 13993 ft 269 kts 351°
2026-05-06 16:30 44.18114 -3.96105 13991 ft 270 kts 351°
2026-05-06 16:30 44.19347 -3.96324 13995 ft 270 kts 351°
2026-05-06 16:30 44.21843 -3.96769 13999 ft 271 kts 351°
2026-05-06 16:30 44.23681 -3.97098 14001 ft 272 kts 351°
2026-05-06 16:31 44.25546 -3.97434 13991 ft 272 kts 351°
2026-05-06 16:31 44.27362 -3.97759 13983 ft 272 kts 351°
2026-05-06 16:31 44.29311 -3.98107 13983 ft 271 kts 350°
2026-05-06 16:31 44.31187 -3.98342 13985 ft 271 kts 354°
2026-05-06 16:32 44.33074 -3.98468 13987 ft 271 kts 355°
2026-05-06 16:32 44.34961 -3.98554 13987 ft 271 kts 357°
2026-05-06 16:32 44.36236 -3.98466 13990 ft 271 kts
2026-05-06 16:32 44.38189 -3.98272 13991 ft 271 kts
2026-05-06 16:33 44.40069 -3.98110 13986 ft 271 kts
2026-05-06 16:33 44.41953 -3.97936 13989 ft 271 kts
2026-05-06 16:33 44.43152 -3.97829 13989 ft 271 kts
2026-05-06 16:34 44.46888 -3.97498 13989 ft 271 kts
2026-05-06 16:34 44.48795 -3.97321 13992 ft 270 kts
2026-05-06 16:34 44.50641 -3.97157 13990 ft 270 kts
2026-05-06 16:34 44.52553 -3.96988 13992 ft 270 kts
2026-05-06 16:35 44.54394 -3.96818 13991 ft 271 kts
2026-05-06 16:35 44.56307 -3.96645 13994 ft 271 kts
2026-05-06 16:35 44.58181 -3.96482 13992 ft 271 kts
2026-05-06 16:35 44.60075 -3.96306 13992 ft 272 kts
2026-05-06 16:36 44.61957 -3.96137 13992 ft 272 kts
2026-05-06 16:36 44.63849 -3.95968 13988 ft 272 kts
2026-05-06 16:36 44.65734 -3.95799 13988 ft 272 kts
2026-05-06 16:36 44.67630 -3.95620 13988 ft 272 kts
2026-05-06 16:37 44.69515 -3.95454 13989 ft 272 kts
2026-05-06 16:37 44.71402 -3.95284 13991 ft 272 kts
2026-05-06 16:37 44.73291 -3.95112 13991 ft 272 kts
2026-05-06 16:37 44.75189 -3.94936 13992 ft 272 kts
2026-05-06 16:38 44.77072 -3.94774 13990 ft 272 kts
2026-05-06 16:38 44.78933 -3.94601 13989 ft 272 kts
2026-05-06 16:38 44.80826 -3.94425 13989 ft 272 kts
2026-05-06 16:38 44.82717 -3.94255 13989 ft 272 kts
2026-05-06 16:39 44.84606 -3.94086 13988 ft 272 kts
2026-05-06 16:39 44.86501 -3.93906 13988 ft 272 kts
2026-05-06 16:39 44.88383 -3.93740 13988 ft 272 kts
2026-05-06 16:39 44.90279 -3.93567 13988 ft 272 kts
2026-05-06 16:40 44.92146 -3.93398 13988 ft 272 kts
2026-05-06 16:40 44.94062 -3.93219 13992 ft 273 kts
2026-05-06 16:40 44.95960 -3.93051 13991 ft 273 kts
2026-05-06 16:40 44.97868 -3.92873 13990 ft 273 kts
2026-05-06 16:41 44.99754 -3.92699 13992 ft 274 kts
2026-05-06 16:41 45.01658 -3.92525 13992 ft 274 kts
2026-05-06 16:41 45.03537 -3.92356 13992 ft 274 kts
2026-05-06 16:41 45.05428 -3.92178 13991 ft 274 kts
2026-05-06 16:42 45.07345 -3.92004 13991 ft 274 kts
2026-05-06 16:42 45.09256 -3.91832 13992 ft 274 kts
2026-05-06 16:42 45.11164 -3.91656 13992 ft 274 kts
2026-05-06 16:42 45.13056 -3.91479 13994 ft 274 kts
2026-05-06 16:43 45.14959 -3.91308 13993 ft 274 kts
2026-05-06 16:43 45.16866 -3.91130 13995 ft 274 kts
2026-05-06 16:43 45.18771 -3.90954 13994 ft 274 kts
2026-05-06 16:43 45.20676 -3.90776 13994 ft 274 kts
2026-05-06 16:44 45.22585 -3.90605 13994 ft 274 kts
2026-05-06 16:44 45.24464 -3.90427 13991 ft 274 kts
2026-05-06 16:44 45.26389 -3.90251 13991 ft 274 kts
2026-05-06 16:44 45.28262 -3.90080 13992 ft 274 kts
2026-05-06 16:45 45.30168 -3.89906 13992 ft 274 kts
2026-05-06 16:45 45.32067 -3.89723 13993 ft 274 kts
2026-05-06 16:45 45.33968 -3.89553 13991 ft 274 kts
2026-05-06 16:45 45.35870 -3.89375 13990 ft 274 kts
2026-05-06 16:46 45.37767 -3.89196 13992 ft 273 kts
2026-05-06 16:46 45.39669 -3.89019 13992 ft 274 kts
2026-05-06 16:46 45.41565 -3.88848 13992 ft 273 kts
2026-05-06 16:46 45.43458 -3.88668 13994 ft 273 kts
2026-05-06 16:47 45.45355 -3.88492 13993 ft 272 kts
2026-05-06 16:47 45.47240 -3.88320 13989 ft 271 kts
2026-05-06 16:47 45.49126 -3.88148 13988 ft 271 kts
2026-05-06 16:47 45.51009 -3.87963 13989 ft 271 kts
2026-05-06 16:48 45.52862 -3.87796 13991 ft 271 kts
2026-05-06 16:48 45.54742 -3.87620 13989 ft 270 kts
2026-05-06 16:48 45.56642 -3.87439 13987 ft 270 kts
2026-05-06 16:48 45.58496 -3.87265 13986 ft 270 kts
2026-05-06 16:49 45.60368 -3.87098 13989 ft 270 kts
2026-05-06 16:49 45.62241 -3.86917 13988 ft 270 kts
2026-05-06 16:49 45.64117 -3.86742 13989 ft 270 kts
2026-05-06 16:49 45.65988 -3.86569 13989 ft 269 kts
2026-05-06 16:50 45.67858 -3.86395 13988 ft 269 kts
2026-05-06 16:50 45.69730 -3.86212 13989 ft 269 kts
2026-05-06 16:50 45.71610 -3.86040 13994 ft 269 kts
2026-05-06 16:50 45.73473 -3.85866 13992 ft 269 kts
2026-05-06 16:51 45.75351 -3.85690 13989 ft 269 kts
2026-05-06 16:51 45.77213 -3.85510 13989 ft 269 kts
2026-05-06 16:51 45.79058 -3.85346 13986 ft 269 kts
2026-05-06 16:51 45.80952 -3.85163 13985 ft 269 kts
2026-05-06 16:52 45.82803 -3.84986 13985 ft 269 kts
2026-05-06 16:52 45.84660 -3.84811 13984 ft 269 kts
2026-05-06 16:52 45.86538 -3.84638 13984 ft 269 kts
2026-05-06 16:52 45.88420 -3.84451 13984 ft 269 kts
2026-05-06 16:53 45.90273 -3.84281 13984 ft 269 kts
2026-05-06 16:53 45.92138 -3.84108 13985 ft 269 kts
2026-05-06 16:53 45.94007 -3.83931 13984 ft 269 kts
2026-05-06 16:53 45.95875 -3.83750 13982 ft 269 kts
2026-05-06 16:54 45.97771 -3.83576 13983 ft 269 kts
2026-05-06 16:54 45.99515 -3.83410 13983 ft 269 kts
2026-05-06 16:54 46.01375 -3.83228 13983 ft 269 kts
2026-05-06 16:54 46.03234 -3.83051 13983 ft 269 kts
2026-05-06 16:55 46.05115 -3.82879 13984 ft 269 kts
2026-05-06 16:55 46.06832 -3.82712 13984 ft 269 kts
2026-05-06 16:55 46.08695 -3.82533 13983 ft 269 kts
2026-05-06 16:55 46.10564 -3.82362 13982 ft 269 kts
2026-05-06 16:56 46.12434 -3.82181 13980 ft 269 kts
2026-05-06 16:56 46.14297 -3.81998 13982 ft 268 kts
2026-05-06 16:56 46.16156 -3.81823 13977 ft 268 kts
2026-05-06 16:56 46.18019 -3.81649 13977 ft 268 kts
2026-05-06 16:57 46.19880 -3.81465 13978 ft 268 kts
2026-05-06 16:57 46.21744 -3.81289 13978 ft 268 kts
2026-05-06 16:57 46.23590 -3.81118 13978 ft 268 kts
2026-05-06 16:57 46.25485 -3.80935 13977 ft 268 kts
2026-05-06 16:58 46.27318 -3.80753 13977 ft 268 kts
2026-05-06 16:58 46.29198 -3.80580 13980 ft 268 kts
2026-05-06 16:58 46.31065 -3.80399 13983 ft 268 kts
2026-05-06 16:58 46.32895 -3.80219 13981 ft 269 kts
2026-05-06 16:59 46.34527 -3.80063 13980 ft 269 kts
2026-05-06 16:59 46.36405 -3.79890 13979 ft 269 kts
2026-05-06 16:59 46.38287 -3.79706 13979 ft 269 kts
2026-05-06 16:59 46.40132 -3.79524 13978 ft 269 kts
2026-05-06 17:00 46.41983 -3.79350 13978 ft 269 kts
2026-05-06 17:00 46.43869 -3.79169 13975 ft 269 kts
2026-05-06 17:00 46.45735 -3.78983 13975 ft 269 kts
2026-05-06 17:00 46.47627 -3.78805 13975 ft 269 kts
2026-05-06 17:01 46.49476 -3.78626 13978 ft 269 kts
2026-05-06 17:01 46.51296 -3.78451 13978 ft 269 kts
2026-05-06 17:01 46.53214 -3.78262 13976 ft 269 kts
2026-05-06 17:01 46.55089 -3.78088 13976 ft 269 kts
2026-05-06 17:02 46.56959 -3.77902 13976 ft 269 kts
2026-05-06 17:02 46.58834 -3.77720 13976 ft 269 kts
2026-05-06 17:02 46.60701 -3.77537 13975 ft 270 kts
2026-05-06 17:02 46.62574 -3.77360 13975 ft 270 kts
2026-05-06 17:03 46.64446 -3.77173 13975 ft 270 kts
2026-05-06 17:03 46.66319 -3.76994 13975 ft 269 kts
2026-05-06 17:03 46.68188 -3.76815 13975 ft 269 kts
2026-05-06 17:03 46.70044 -3.76634 13976 ft 270 kts
2026-05-06 17:04 46.71923 -3.76446 13975 ft 269 kts
2026-05-06 17:04 46.73796 -3.76270 13975 ft 269 kts
2026-05-06 17:04 46.75129 -3.76139 13974 ft 269 kts
2026-05-06 17:04 46.76041 -3.76047 13975 ft 269 kts
2026-05-06 17:05 46.77856 -3.75871 13975 ft 269 kts
2026-05-06 17:05 46.79730 -3.75686 13975 ft 269 kts
2026-05-06 17:05 46.81571 -3.75510 13976 ft 270 kts
2026-05-06 17:05 46.83442 -3.75319 13976 ft 270 kts
2026-05-06 17:06 46.85317 -3.75105 13972 ft 270 kts
2026-05-06 17:06 46.87183 -3.74870 13974 ft 270 kts
2026-05-06 17:06 46.89059 -3.74611 13973 ft 270 kts
2026-05-06 17:06 46.90932 -3.74329 13977 ft 270 kts
2026-05-06 17:07 46.92803 -3.74027 13973 ft 271 kts
2026-05-06 17:07 46.94678 -3.73703 13979 ft 272 kts
2026-05-06 17:07 46.95922 -3.73476 13977 ft 273 kts
2026-05-06 17:07 46.98440 -3.72987 13966 ft 273 kts
2026-05-06 17:08 46.99686 -3.72731 13965 ft 273 kts
2026-05-06 17:08 47.01562 -3.72325 13966 ft 272 kts
2026-05-06 17:08 47.03435 -3.71898 13967 ft 272 kts
2026-05-06 17:08 47.05252 -3.71462 13968 ft 272 kts
2026-05-06 17:09 47.07167 -3.70979 13966 ft 272 kts
2026-05-06 17:09 47.09029 -3.70486 13964 ft 272 kts
2026-05-06 17:09 47.10889 -3.69971 13964 ft 272 kts
2026-05-06 17:09 47.12748 -3.69433 13967 ft 272 kts
2026-05-06 17:10 47.14597 -3.68875 13965 ft 272 kts
2026-05-06 17:10 47.16451 -3.68292 13964 ft 272 kts
2026-05-06 17:10 47.18295 -3.67688 13963 ft 272 kts 10°
2026-05-06 17:10 47.20139 -3.67059 13961 ft 272 kts 10°
2026-05-06 17:11 47.21977 -3.66410 13958 ft 272 kts 11°
2026-05-06 17:11 47.23813 -3.65738 13958 ft 272 kts 12°
2026-05-06 17:11 47.25642 -3.65044 13955 ft 272 kts 12°
2026-05-06 17:11 47.27470 -3.64327 13956 ft 272 kts 12°
2026-05-06 17:12 47.29269 -3.63598 13956 ft 272 kts 13°
2026-05-06 17:12 47.31111 -3.62828 13957 ft 272 kts 13°
2026-05-06 17:12 47.32907 -3.62053 13960 ft 272 kts 14°
2026-05-06 17:12 47.34710 -3.61251 13959 ft 272 kts 14°
2026-05-06 17:13 47.36558 -3.60405 13960 ft 273 kts 15°
2026-05-06 17:13 47.38367 -3.59552 13956 ft 273 kts 15°
2026-05-06 17:13 47.40167 -3.58680 13955 ft 273 kts 16°
2026-05-06 17:13 47.41855 -3.57839 13951 ft 273 kts 16°
2026-05-06 17:14 47.42826 -3.57347 13962 ft 274 kts 16°
2026-05-06 17:14 47.43869 -3.56814 13970 ft 274 kts 16°
2026-05-06 17:14 47.45733 -3.56435 13965 ft 270 kts 351°
2026-05-06 17:14 47.47490 -3.57304 13954 ft 266 kts 331°
2026-05-06 17:15 47.49119 -3.58595 13948 ft 265 kts 328°
2026-05-06 17:15 47.50696 -3.59942 13942 ft 265 kts 327°
2026-05-06 17:15 47.52276 -3.61310 13942 ft 264 kts 327°
2026-05-06 17:15 47.53867 -3.62674 13951 ft 263 kts 327°
2026-05-06 17:16 47.55454 -3.64006 13950 ft 263 kts 328°
2026-05-06 17:16 47.57091 -3.65251 13949 ft 265 kts 336°
2026-05-06 17:16 47.58868 -3.66002 13952 ft 267 kts 345°
2026-05-06 17:16 47.60707 -3.66456 13953 ft 269 kts 350°
2026-05-06 17:17 47.62573 -3.66706 13955 ft 270 kts 353°
2026-05-06 17:17 47.64452 -3.66847 13962 ft 272 kts 355°
2026-05-06 17:17 47.66351 -3.66942 13951 ft 273 kts 355°
2026-05-06 17:17 47.68245 -3.66923 13944 ft 274 kts
2026-05-06 17:18 47.70141 -3.66699 13944 ft 273 kts
2026-05-06 17:18 47.72030 -3.66515 13943 ft 272 kts
2026-05-06 17:18 47.73919 -3.66323 13941 ft 272 kts
2026-05-06 17:18 47.75803 -3.66132 13946 ft 271 kts
2026-05-06 17:19 47.77687 -3.65942 13949 ft 271 kts
2026-05-06 17:19 47.79566 -3.65751 13951 ft 271 kts
2026-05-06 17:19 47.81446 -3.65560 13943 ft 271 kts
2026-05-06 17:19 47.83325 -3.65370 13943 ft 270 kts
2026-05-06 17:20 47.85197 -3.65180 13946 ft 270 kts
2026-05-06 17:20 47.87076 -3.64989 13946 ft 270 kts
2026-05-06 17:20 47.88924 -3.64801 13947 ft 270 kts
2026-05-06 17:20 47.90798 -3.64610 13948 ft 270 kts
2026-05-06 17:21 47.92672 -3.64419 13951 ft 270 kts
2026-05-06 17:21 47.94546 -3.64228 13951 ft 270 kts
2026-05-06 17:21 47.96435 -3.64036 13956 ft 270 kts
2026-05-06 17:21 47.98282 -3.63845 13953 ft 270 kts
2026-05-06 17:22 48.00159 -3.63653 13952 ft 270 kts
2026-05-06 17:22 48.02016 -3.63464 13950 ft 270 kts
2026-05-06 17:22 48.03906 -3.63270 13949 ft 270 kts
2026-05-06 17:22 48.05780 -3.63079 13950 ft 270 kts
2026-05-06 17:23 48.07649 -3.62888 13953 ft 270 kts
2026-05-06 17:23 48.09508 -3.62697 13955 ft 270 kts
2026-05-06 17:23 48.11397 -3.62502 13955 ft 270 kts
2026-05-06 17:23 48.13271 -3.62310 13954 ft 270 kts
2026-05-06 17:24 48.15146 -3.62117 13955 ft 270 kts
2026-05-06 17:24 48.17022 -3.61925 13961 ft 270 kts
2026-05-06 17:24 48.18889 -3.61733 13961 ft 270 kts
2026-05-06 17:24 48.20770 -3.61538 13960 ft 270 kts
2026-05-06 17:25 48.22651 -3.61345 13958 ft 270 kts
2026-05-06 17:25 48.24519 -3.61152 13957 ft 270 kts
2026-05-06 17:25 48.25873 -3.61011 13960 ft 270 kts
2026-05-06 17:25 48.27551 -3.60838 13961 ft 270 kts
2026-05-06 17:26 48.29421 -3.60645 13961 ft 270 kts
2026-05-06 17:26 48.30397 -3.60517 13960 ft 271 kts
2026-05-06 17:26 48.31801 -3.59775 13960 ft 275 kts 26°
2026-05-06 17:26 48.32629 -3.59033 13962 ft 276 kts 31°
2026-05-06 17:27 48.34053 -3.57466 13963 ft 277 kts 37°
2026-05-06 17:27 48.35519 -3.55585 13959 ft 277 kts 39°
2026-05-06 17:27 48.36947 -3.53633 13959 ft 277 kts 40°
2026-05-06 17:27 48.38343 -3.51625 13960 ft 278 kts 45°
2026-05-06 17:28 48.39604 -3.49428 13965 ft 278 kts 47°
2026-05-06 17:28 48.40885 -3.47246 13964 ft 278 kts 47°
2026-05-06 17:28 48.41644 -3.45953 13963 ft 278 kts 47°
2026-05-06 17:28 48.41884 -3.45542 13963 ft 278 kts 47°
2026-05-06 17:29 48.42928 -3.43753 13960 ft 277 kts 47°
2026-05-06 17:29 48.43862 -3.42154 13959 ft 277 kts 47°
2026-05-06 17:29 48.45063 -3.40097 13958 ft 277 kts 47°
2026-05-06 17:29 48.46350 -3.37890 13959 ft 277 kts 47°
2026-05-06 17:30 48.47602 -3.35742 13959 ft 277 kts 47°
2026-05-06 17:30 48.48871 -3.33563 13958 ft 276 kts 47°
2026-05-06 17:30 48.50142 -3.31377 13959 ft 276 kts 47°
2026-05-06 17:30 48.51406 -3.29202 13959 ft 276 kts 47°
2026-05-06 17:31 48.52673 -3.27022 13965 ft 276 kts 47°
2026-05-06 17:31 48.53939 -3.24840 13966 ft 277 kts 47°
2026-05-06 17:31 48.55208 -3.22650 13967 ft 277 kts 47°
2026-05-06 17:31 48.56158 -3.21010 13967 ft 277 kts 47°
2026-05-06 17:32 48.56891 -3.19744 13968 ft 277 kts 47°
2026-05-06 17:32 48.58022 -3.17791 13969 ft 276 kts 47°
2026-05-06 17:32 48.58534 -3.16904 13970 ft 277 kts 47°
2026-05-06 17:32 48.59221 -3.15716 13970 ft 276 kts 47°
2026-05-06 17:33 48.60485 -3.13527 13971 ft 276 kts 47°
2026-05-06 17:33 48.61751 -3.11335 13973 ft 276 kts 47°
2026-05-06 17:33 48.63013 -3.09145 13972 ft 276 kts 47°
2026-05-06 17:33 48.64276 -3.06954 13972 ft 276 kts 47°
2026-05-06 17:34 48.65120 -3.05491 13971 ft 276 kts 47°
2026-05-06 17:34 48.65941 -3.04062 13974 ft 276 kts 47°
2026-05-06 17:34 48.66773 -3.02615 13975 ft 276 kts 47°
2026-05-06 17:34 48.67503 -3.01346 13974 ft 276 kts 47°
2026-05-06 17:35 48.68296 -2.99966 13974 ft 276 kts 47°
2026-05-06 17:35 48.69146 -2.98487 13972 ft 276 kts 47°
2026-05-06 17:35 48.69978 -2.97037 13971 ft 275 kts 47°
2026-05-06 17:36 48.72490 -2.92659 13973 ft 275 kts 47°
2026-05-06 17:36 48.73745 -2.90467 13971 ft 275 kts 47°
2026-05-06 17:36 48.75003 -2.88270 13969 ft 275 kts 47°
2026-05-06 17:36 48.76233 -2.86119 13969 ft 275 kts 47°
2026-05-06 17:37 48.77076 -2.84646 13967 ft 275 kts 47°
2026-05-06 17:37 48.78380 -2.82362 13966 ft 275 kts 47°
2026-05-06 17:37 48.79659 -2.80122 13959 ft 275 kts 47°
2026-05-06 17:37 48.80877 -2.77985 13959 ft 275 kts 47°
2026-05-06 17:38 48.82130 -2.75786 13956 ft 275 kts 47°
2026-05-06 17:38 48.83383 -2.73585 13956 ft 275 kts 47°
2026-05-06 17:38 48.84627 -2.71396 13956 ft 275 kts 47°
2026-05-06 17:38 48.85881 -2.69190 13956 ft 275 kts 47°
2026-05-06 17:39 48.87130 -2.66990 13959 ft 275 kts 47°
2026-05-06 17:39 48.88376 -2.64796 13962 ft 275 kts 47°
2026-05-06 17:39 48.89570 -2.62690 13962 ft 275 kts 47°
2026-05-06 17:39 48.90870 -2.60395 13905 ft 277 kts 47°
2026-05-06 17:40 48.92139 -2.58155 13668 ft 284 kts 47°
2026-05-06 17:40 48.93448 -2.55838 13337 ft 282 kts 48°
2026-05-06 17:40 48.94609 -2.53774 13011 ft 237 kts 47°
2026-05-06 17:40 48.95631 -2.51971 12693 ft 215 kts 47°
2026-05-06 17:41 48.96580 -2.50290 12380 ft 205 kts 47°
2026-05-06 17:41 48.97494 -2.48671 12071 ft 199 kts 47°
2026-05-06 17:41 48.98386 -2.47088 11765 ft 196 kts 47°
2026-05-06 17:41 48.99265 -2.45528 11460 ft 194 kts 47°
2026-05-06 17:42 49.00147 -2.43959 11158 ft 192 kts 47°
2026-05-06 17:42 49.01008 -2.42444 10861 ft 190 kts 44°
2026-05-06 17:42 49.02138 -2.41559 10561 ft 182 kts
2026-05-06 17:42 49.03311 -2.41980 10279 ft 173 kts 322°
2026-05-06 17:43 49.04160 -2.43263 9988 ft 171 kts 309°
2026-05-06 17:43 49.04932 -2.44633 9675 ft 170 kts 307°
2026-05-06 17:43 49.05693 -2.46017 9351 ft 170 kts 308°
2026-05-06 17:43 49.06471 -2.47367 9034 ft 170 kts 313°
2026-05-06 17:44 49.07342 -2.48578 8717 ft 169 kts 315°
2026-05-06 17:44 49.08204 -2.49784 8402 ft 168 kts 315°
2026-05-06 17:44 49.09058 -2.51001 8091 ft 167 kts 315°
2026-05-06 17:44 49.10069 -2.51826 7781 ft 171 kts 351°
2026-05-06 17:45 49.11218 -2.51402 7462 ft 176 kts 31°
2026-05-06 17:45 49.11953 -2.49950 7083 ft 181 kts 70°
2026-05-06 17:45 49.11989 -2.48028 6706 ft 181 kts 97°
2026-05-06 17:45 49.12233 -2.46223 6338 ft 178 kts 56°
2026-05-06 17:46 49.13178 -2.45109 5946 ft 173 kts 14°
2026-05-06 17:46 49.14322 -2.44682 5557 ft 171 kts 16°
2026-05-06 17:46 49.15426 -2.43951 5169 ft 170 kts 25°
2026-05-06 17:46 49.16422 -2.43166 4777 ft 146 kts 28°
2026-05-06 17:47 49.17179 -2.42485 4375 ft 112 kts 32°
2026-05-06 17:47 49.17787 -2.41853 3980 ft 101 kts 36°
2026-05-06 17:47 49.18315 -2.41212 3642 ft 91 kts 40°
2026-05-06 17:47 49.18803 -2.40499 3794 ft 102 kts 52°
2026-05-06 17:48 49.19030 -2.39463 3224 ft 112 kts 81°
2026-05-06 17:48 49.19140 -2.38266 2499 ft 112 kts 81°
2026-05-06 17:48 49.19245 -2.37165 1954 ft 103 kts 80°
2026-05-06 17:48 49.19385 -2.36065 1470 ft 115 kts 78°
2026-05-06 17:49 49.19542 -2.34805 1061 ft 125 kts 80°
2026-05-06 17:49 49.19646 -2.33602 918 ft 114 kts 82°
2026-05-06 17:49 49.19678 -2.33178 873 ft 113 kts 83°
2026-05-06 17:49 49.19774 -2.31857 795 ft 137 kts 82°
2026-05-06 17:50 49.19899 -2.30321 739 ft 143 kts 82°
2026-05-06 17:50 49.19984 -2.29325 745 ft 142 kts 81°
2026-05-06 17:50 49.20109 -2.27827 743 ft 142 kts 82°
2026-05-06 17:50 49.20228 -2.26347 732 ft 140 kts 82°
2026-05-06 17:51 49.20350 -2.24876 719 ft 136 kts 81°
2026-05-06 17:51 49.20395 -2.24387 701 ft 125 kts 81°
2026-05-06 17:51 49.20429 -2.23967 706 ft 112 kts 82°
2026-05-06 17:51 49.20490 -2.23195 686 ft 97 kts 80°
2026-05-06 17:52 49.20568 -2.22177 461 ft 102 kts 83°
2026-05-06 17:52 49.20583 -2.21968 458 ft 102 kts 82°
2026-05-06 17:52 49.20643 -2.21310 382 ft 94 kts 80°
2026-05-06 17:52 49.20663 -2.21106 359 ft 93 kts 80°
2026-05-06 17:53 49.20678 -2.20954 352 ft 91 kts 80°
2026-05-06 17:53 49.20693 -2.20808 315 ft 90 kts 81°
2026-05-06 17:53 49.20705 -2.20671 307 ft 88 kts 81°
2026-05-06 17:54 49.20789 -2.19695 276 ft 61 kts 83°